Location: Newark
(34.0131°N, 4.3314°W)
Time: 17:16:26
(UTC+00:00)

A-11 Canister half - Pass Details

Date: 01 November 2019
Orbit: 1514 x 1685 km, 47.2° (Epoch: 19 November)

Event Time Altitude Azimuth Distance (km) Brightness Sun altitude
Rises 07:33:08 0° 295° (WNW) 4,790 10.9 10.1°
Reaches altitude 10° 07:37:07 10° 281° (WNW) 3,772 10.5 10.9°
Maximum altitude 07:43:55 23° 235° (SW) 2,859 10.3 12.1°
Drops below altitude 10° 07:50:36 10° 188° (S) 3,683 11.3 13.4°
Sets 07:54:29 0° 174° (S) 4,648 12.0 14.1°
